Burlington, VT

10:56 PM EST on November 20, 2019 (GMT -0500)
Burlington International

Weather History for KBTV - October, 2019

Change the Weather History Date:

Monday, October 21, 2019

  Actual Average Record
Temperature  
Mean Temperature 50 °F 46 °F  
Max Temperature 62 °F 55 °F 76 °F (1995)
Min Temperature 37 °F 37 °F 20 °F (1972)
Degree Days  
Heating Degree Days 15 19  
Month to date heating degree days 283 319  
Since 1 July heating degree days 397 536  
Cooling Degree Days 0 0  
Month to date cooling degree days 0 0  
Year to date cooling degree days 606 489  
Moisture  
Dew Point 40 °F    
Average Humidity 74    
Maximum Humidity 97    
Minimum Humidity 51    
Precipitation  
Precipitation 0.00 in 0.11 in 2.10 in (1885)
Month to date precipitation 3.96 2.49  
Year to date precipitation 33.96 30.20  
Snow  
Snow 0.00 in 0.00 in 3.60 in (1926)
Month to date snowfall 0.0 0.1  
Since 1 July snowfall 0.0 0.1  
Since 1 September snowfall 0.0 0.1  
Snow Depth 0.00 in    
Sea Level Pressure  
Sea Level Pressure 30.13 in    
Wind  
Wind Speed 3 mph (NNE)    
Max Wind Speed 9 mph    
Max Gust Speed 12 mph    
Visibility 6 miles    
Events Fog    
T = Trace of Precipitation, MM = Missing Value Source: NWS Daily Summary

Daily Weather History Graph

Daily Weather History Graph

Search for Another Location

Airport or City:

Astronomy

Oct. 21, 2019 Rise Set
Actual Time 7:15 AM EDT 5:58 PM EDT
Civil Twilight 6:45 AM EDT 6:28 PM EDT
Nautical Twilight 6:11 AM EDT 7:02 PM EDT
Astronomical Twilight 5:37 AM EDT 7:35 PM EDT
Moon No Moon Rise 2:39 PM EDT
Length of Visible Light 11h 42m
Length of Day
10h 43m
Waning Gibbous, 48% of the Moon is Illuminated
Oct 21
Waning Gibbous
Oct 27
New
Nov 4
First Quarter
Nov 12
Full
Nov 19
Last Quarter

Hourly Weather History & Observations

Time (EDT) Temp. Windchill Dew Point Humidity Pressure Visibility Wind Dir Wind Speed Gust Speed Precip Events Conditions
12:54 AM 42.1 °F - 39.0 °F 89% 30.06 in 10.0 mi Calm Calm - N/A   Clear
1:54 AM 41.0 °F - 39.0 °F 93% 30.07 in 10.0 mi Calm Calm - N/A   Clear
2:54 AM 39.0 °F - 37.0 °F 93% 30.08 in 10.0 mi Calm Calm - N/A   Clear
3:54 AM 39.9 °F - 37.0 °F 89% 30.09 in 10.0 mi Calm Calm - N/A   Clear
4:54 AM 39.0 °F - 36.0 °F 89% 30.10 in 10.0 mi Calm Calm - N/A   Clear
5:54 AM 39.0 °F - 36.0 °F 89% 30.12 in 10.0 mi Calm Calm - N/A   Clear
6:23 AM 37.9 °F 35.5 °F 36.0 °F 93% 30.12 in 7.0 mi ENE 3.5 mph - N/A   Partly Cloudy
6:54 AM 37.9 °F 35.5 °F 36.0 °F 93% 30.14 in 0.8 mi East 3.5 mph - N/A   Scattered Clouds
7:09 AM 37.9 °F - 36.0 °F 93% 30.14 in 0.8 mi Calm Calm - N/A   Scattered Clouds
7:22 AM 37.0 °F 34.5 °F 36.0 °F 96% 30.13 in 0.8 mi East 3.5 mph - N/A   Scattered Clouds
7:26 AM 37.9 °F 35.5 °F 36.0 °F 93% 30.13 in 4.0 mi East 3.5 mph - N/A Fog Patches of Fog
7:33 AM 37.9 °F 35.5 °F 36.0 °F 93% 30.14 in 0.8 mi East 3.5 mph - N/A Fog Patches of Fog
7:37 AM 37.9 °F 35.5 °F 36.0 °F 93% 30.14 in 4.0 mi East 3.5 mph - N/A Fog Patches of Fog
7:45 AM 37.9 °F - 36.0 °F 93% 30.14 in 0.5 mi Calm Calm - N/A Fog Fog
7:54 AM 37.9 °F - 36.0 °F 93% 30.15 in 0.5 mi Calm Calm - N/A Fog Fog
8:01 AM 37.9 °F - 37.0 °F 97% 30.14 in 0.5 mi Calm Calm - N/A Fog Fog
8:17 AM 39.0 °F 36.8 °F 37.0 °F 93% 30.14 in 0.2 mi ENE 3.5 mph - N/A Fog Fog
8:54 AM 41.0 °F - 39.0 °F 93% 30.15 in 0.2 mi Calm Calm - N/A Fog Fog
9:12 AM 42.1 °F - 41.0 °F 96% 30.15 in 0.8 mi Calm Calm - N/A   Mist
9:18 AM 42.1 °F - 41.0 °F 96% 30.15 in 1.5 mi Calm Calm - N/A   Mostly Cloudy
9:25 AM 42.1 °F - 41.0 °F 96% 30.16 in 0.2 mi Calm Calm - N/A Fog Fog
9:54 AM 43.0 °F - 41.0 °F 93% 30.17 in 0.2 mi Calm Calm - N/A Fog Fog
10:02 AM 44.1 °F - 43.0 °F 96% 30.16 in 0.8 mi Calm Calm - N/A   Mostly Cloudy
10:17 AM 46.0 °F - 44.1 °F 93% 30.16 in 3.0 mi Calm Calm - N/A Fog Patches of Fog
10:54 AM 52.0 °F - 44.1 °F 74% 30.17 in 10.0 mi NW 4.6 mph - N/A   Clear
11:54 AM 55.9 °F - 46.0 °F 69% 30.16 in 10.0 mi NW 4.6 mph - N/A   Clear
12:54 PM 59.0 °F - 46.0 °F 62% 30.15 in 10.0 mi NNW 6.9 mph - N/A   Clear
1:54 PM 61.0 °F - 46.0 °F 58% 30.12 in 10.0 mi NW 8.1 mph - N/A   Clear
2:54 PM 62.1 °F - 44.1 °F 52% 30.12 in 10.0 mi NNW 8.1 mph - N/A   Scattered Clouds
3:54 PM 61.0 °F - 43.0 °F 52% 30.11 in 10.0 mi NW 6.9 mph - N/A   Mostly Cloudy
4:54 PM 60.1 °F - 42.1 °F 51% 30.13 in 10.0 mi NW 8.1 mph - N/A   Scattered Clouds
5:54 PM 57.0 °F - 43.0 °F 59% 30.14 in 10.0 mi NNW 4.6 mph - N/A   Scattered Clouds
6:54 PM 52.0 °F - 42.1 °F 69% 30.15 in 10.0 mi Calm Calm - N/A   Scattered Clouds
7:54 PM 48.0 °F - 42.1 °F 80% 30.14 in 10.0 mi Calm Calm - N/A   Clear
8:54 PM 46.9 °F - 42.1 °F 83% 30.14 in 10.0 mi Calm Calm - N/A   Clear
9:54 PM 43.0 °F - 39.9 °F 89% 30.14 in 10.0 mi Calm Calm - N/A   Clear
10:54 PM 42.1 °F 39.2 °F 39.0 °F 89% 30.13 in 10.0 mi SSW 4.6 mph - N/A   Clear
11:54 PM 43.0 °F 41.3 °F 41.0 °F 93% 30.12 in 10.0 mi SE 3.5 mph - N/A   Clear